Regional Weather Roundup
Issued by NWS Columbia, SC

Home | Current Version | Previous Version | Text Only | Print | Product List | Glossary On
Versions: 1 2 3 4 5 6 7 8 9 10 11 12 13 14 15 16 17 18 19 20 21 22 23 24 25 26 27 28 29 30 31 32 33 34 35 36 37 38 39 40 41 42 43 44 45 46 47 48 49 50
000
ASUS42 KCAE 202210
RWRCAE
REGIONAL WEATHER ROUNDUP
NATIONAL WEATHER SERVICE COLUMBIA SC
500 PM EST SAT DEC 20 2014

NOTE: "FAIR" INDICATES FEW OR NO CLOUDS BELOW 12,000 FEET WITH NO
SIGNIFICANT WEATHER AND/OR OBSTRUCTIONS TO VISIBILITY.

NOT ALL STATIONS ARE QUALITY CONTROLLED BY THE NATIONAL
WEATHER SERVICE. USE DATA WITH CAUTION...ESPECIALLY
DEWPOINT OBSERVATIONS.

SCZ001>056-GAZ040-063>065-077-202300-
...UPSTATE SOUTH CAROLINA...

CITY           SKY/WX    TMP DP  RH WIND       PRES   REMARKS
ANDERSON       CLOUDY    45  41  86 E6        30.19R
LIBERTY        CLOUDY    43  40  91 MISG      30.18S
SPARTANBURG    CLOUDY    45  43  93 CALM      30.20S
CLEMSON        CLOUDY    45  41  86 E3        30.20R
GREENVILLE     CLOUDY    43  39  86 NE7       30.20R
GREENWOOD      CLOUDY    46  42  86 NE5       30.21R
GREER          CLOUDY    43  41  93 NE5       30.18S
ROCK HILL      CLOUDY    44  36  73 E3        30.21S
CHESTER        CLOUDY    46  37  71 E5        30.22R
LAURENS        CLOUDY    45  45 100 NE3       30.20R


...CENTRAL SOUTH CAROLINA...

CITY           SKY/WX    TMP DP  RH WIND       PRES   REMARKS
COLUMBIA APT   CLOUDY    49  44  83 E5        30.20R
COLUMBIA OWENS CLOUDY    49  42  77 NE3       30.21R
DARLINGTON     CLOUDY    45  36  70 NE7       30.23S
FLORENCE       CLOUDY    46  39  76 NE8       30.22R
MCENTIRE ANGB  CLOUDY    47  42  84 NE6       30.21R
ORANGEBURG     CLOUDY    48  45  89 NE7       30.19R FOG
SUMTER SHAW    CLOUDY    46  42  83 NE8       30.19S
NEWBERRY       CLOUDY    45 N/A N/A NE5       30.23R
AIKEN          CLOUDY    48  48 100 NE6       30.21R FOG
BARNWELL       CLOUDY    50  48  93 NE7       30.18S
CAMDEN         CLOUDY    46  37  71 NE6       30.22S
LANCASTER      CLOUDY    45  41  87 NE5       30.22R
WINNSBORO      CLOUDY    45  43  93 NE6       30.20R


...EASTERN AND COASTAL SOUTH CAROLINA...

CITY           SKY/WX    TMP DP  RH WIND       PRES   REMARKS
MYRTLE BEACH   CLOUDY    46  43  87 NE12      30.22R
N MYRTLE BCH   CLOUDY    46  43  89 NE7       30.21R
CONWAY         CLOUDY    45  45 100 NE6       30.22R
MARION         CLOUDY    45  39  81 CALM      30.23R
HARTSVILLE     CLOUDY    46  36  66 E7        30.22S
FLORENCE       CLOUDY    46  39  76 NE8       30.22R
DARLINGTON     CLOUDY    45  36  70 NE7       30.23S
CHARLESTON APT CLOUDY    52  50  93 NE10      30.18R
MOUNT PLEASANT CLOUDY    52  52 100 NE6       30.18R
WALTERBORO     CLOUDY    54 N/A N/A N3        30.17R
BEAUFORT       CLOUDY    55  51  86 N7        30.16R


...EASTERN GEORGIA...

CITY           SKY/WX    TMP DP  RH WIND       PRES   REMARKS
AUGUSTA BUSH F CLOUDY    52  49  89 NE9       30.18R FOG
AUGUSTA DANIEL CLOUDY    51  50  96 N7        30.18R FOG
THOMSON        CLOUDY    51  51 100 N3        30.22R
WASHINGTON     CLOUDY    50 N/A N/A N3        30.18R FOG
CLAXTON        CLOUDY    55  52  88 NE6       30.14S
SYLVANIA       CLOUDY    53  52  97 NE3       30.17R
STATESBORO     CLOUDY    54  53  96 E3        30.15S
SAVANNAH       CLOUDY    55  51  86 NE5       30.16R


...SOUTHERN NORTH CAROLINA...

CITY           SKY/WX    TMP DP  RH WIND       PRES   REMARKS
CHARLOTTE      CLOUDY    45  33  63 SE5       30.22R
MONROE         CLOUDY    43  35  73 VRB5      30.21S
WADESBORO      CLOUDY    44  37  78 CALM      30.23S
ROCKINGHAM     CLOUDY    42  37  79 CALM      30.23S
RUTHERFORDTON  CLOUDY    43  38  82 CALM      30.21R
ASHEVILLE      CLOUDY    42  37  82 S7        30.16R

$$


USA.gov is the U.S. government's official web portal to all federal, state and local government web resources and services.